Location: Rockford
(42.2710°N, 89.0940°W)
Time: 01:17:05
(UTC-05:00)

SPOT 5 - Visible Passes

Search period start: 23 March 2017 00:00
Search period end: 02 April 2017 00:00
Orbit: 624 x 815 km, 98.4° (Epoch: 21 March)

Date Brightness Start Highest point End Pass type
(mag) Time Alt. Az. Time Alt. Az. Time Alt. Az.
23 Mar 3.5 21:37:51 48° NE 21:37:51 48° NE 21:42:15 10° N visible
23 Mar 5.5 23:17:06 18° WNW 23:17:06 18° WNW 23:19:20 10° NW visible
24 Mar 4.5 20:47:10 20° ENE 20:47:29 21° ENE 20:51:20 10° NNE visible
24 Mar 4.1 22:26:24 45° NW 22:26:24 45° NW 22:30:21 10° NNW visible
25 Mar 3.5 21:35:43 48° NE 21:35:43 48° NE 21:40:18 10° N visible
25 Mar 5.3 23:14:57 19° WNW 23:14:57 19° WNW 23:17:30 10° NW visible
26 Mar 4.5 20:45:02 19° ENE 20:45:35 20° ENE 20:49:20 10° NNE visible
26 Mar 3.9 22:24:16 50° NW 22:24:16 50° NW 22:28:27 10° NNW visible
27 Mar 3.5 21:33:35 48° ENE 21:33:35 48° ENE 21:38:22 10° N visible
27 Mar 5.2 23:12:50 21° WNW 23:12:50 21° WNW 23:15:39 10° NW visible
28 Mar 4.6 20:42:54 18° ENE 20:43:42 19° ENE 20:47:19 10° NNE visible
28 Mar 3.7 22:22:08 54° NW 22:22:08 54° NW 22:26:32 10° NNW visible
29 Mar 3.4 21:31:27 47° ENE 21:31:27 47° ENE 21:36:24 10° N visible
29 Mar 5.1 23:10:41 22° WNW 23:10:41 22° WNW 23:13:47 10° NW visible
30 Mar 4.6 20:40:46 17° ENE 20:41:48 18° ENE 20:45:18 10° NNE visible
30 Mar 3.5 22:20:01 60° WNW 22:20:01 60° WNW 22:24:36 10° NNW visible
31 Mar 3.5 21:29:21 45° ENE 21:29:26 45° ENE 21:34:26 10° N visible
31 Mar 5.0 23:08:35 23° WNW 23:08:35 23° WNW 23:11:54 10° NW visible
01 Apr 4.7 20:38:40 16° ENE 20:39:55 17° ENE 20:43:15 10° NNE visible
01 Apr 3.4 22:17:54 65° WNW 22:17:54 65° WNW 22:22:39 10° NNW visible
